Retour au catalogue

STARLINK-33665

ActifCommunicationsVLEO
NORAD 63281·PAYLOAD·🇺🇸 United States

Lancé Mar 15, 2025 depuis Cape Canaveral Space Force Station

Loading…

Prochains Passages (prochaines 24 heures)

TLE

FraisSource: CelesTrak SupGP

Époque: Sep 15, 2026, 03:02 UTC

1 63281C 25053S   26258.12687500 -.00022320  00000+0 -80855-3 0  2584
2 63281  42.9990 251.4234 0001314 265.8306   8.7664 15.27585328    13

Suivez STARLINK-33665 en temps réel avec AllMySat

Download on the App Store